CW4525 Weather Reports


time (UTC)temp
F
wind
direction
speed
knots
gust
knots
rain 1hr
in
rain 24hr
in
rain mn
in
humidity
%
barometer
mb
20260506004541 68 223 2.6 10.4 0.00 0.00 0.00 62 1004.2
20260506003035 71 247 7.8 15.6 0.00 0.00 0.00 55 1004.3
20260506001540 73 225 5.2 20.0 0.00 0.00 0.00 43 1003.4
20260506000051 73 147 7.0 18.2 0.00 0.00 0.00 43 1002.3
20260505234539 74 189 8.7 20.0 0.00 0.00 0.00 41 1002.1
20260505233033 74 174 7.8 20.9 0.00 0.00 0.00 42 1001.7
20260505231635 74 219 13.0 20.9 0.00 0.00 0.00 41 1001.6
20260505230041 75 186 13.9 28.7 0.00 0.00 0.00 40 1001.2
20260505224542 76 187 13.9 22.6 0.00 0.00 0.00 40 1001.1
20260505223037 77 207 11.3 23.5 0.00 0.00 0.00 39 1001.0
20260505221531 78 206 10.4 22.6 0.00 0.00 0.00 37 1000.8
20260505220030 78 153 10.4 23.5 0.00 0.00 0.00 36 1000.6
20260505214529 79 215 9.6 20.0 0.00 0.00 0.00 35 1000.6
20260505213029 79 255 7.0 22.6 0.00 0.00 0.00 35 1000.1
20260505211539 79 212 9.6 20.0 0.00 0.00 0.00 34 999.9
20260505210028 79 221 13.9 27.8 0.00 0.00 0.00 34 1000.0
20260505204527 79 159 12.2 30.4 0.00 0.00 0.00 34 1000.0
20260505203027 80 138 14.8 29.5 0.00 0.00 0.00 33 1000.2
20260505201525 80 214 10.4 25.2 0.00 0.00 0.00 32 1000.1
20260505200025 81 170 9.6 27.8 0.00 0.00 0.00 32 1000.1
20260505194524 81 194 13.9 28.7 0.00 0.00 0.00 30 1000.1
20260505193023 81 157 10.4 32.2 0.00 0.00 0.00 30 1000.4
20260505191530 81 179 16.5 26.9 0.00 0.00 0.00 30 1000.1
20260505190022 82 242 14.8 25.2 0.00 0.00 0.00 29 1000.6
20260505184519 81 157 11.3 26.9 0.00 0.00 0.00 31 1001.0
20260505183021 81 178 16.5 31.3 0.00 0.00 0.00 30 1001.2
20260505181518 81 178 15.6 33.9 0.00 0.00 0.00 30 1001.6
20260505180015 81 214 9.6 27.8 0.00 0.00 0.00 33 1001.6
20260505174522 80 228 8.7 25.2 0.00 0.00 0.00 34 1001.8
20260505173012 80 267 13.0 24.3 0.00 0.00 0.00 31 1002.1
20260505171516 79 204 13.0 24.3 0.00 0.00 0.00 34 1002.1
20260505170011 79 195 10.4 23.5 0.00 0.00 0.00 34 1002.3
20260505164506 79 192 8.7 19.1 0.00 0.00 0.00 37 1002.6
20260505163009 78 249 13.9 26.1 0.00 0.00 0.00 36 1002.9
20260505161502 78 194 8.7 16.5 0.00 0.00 0.00 38 1003.3
20260505153053 75 201 9.6 19.1 0.00 0.00 0.00 42 1004.1
20260505151547 73 145 7.0 15.6 0.00 0.00 0.00 44 1004.4
20260505124515 62 147 3.5 10.4 0.00 0.00 0.00 58 1004.4
20260505123009 61 163 3.5 7.8 0.00 0.00 0.00 60 1004.5
20260505121505 60 196 4.3 10.4 0.00 0.00 0.00 61 1004.6
20260505120002 58 183 6.1 13.0 0.00 0.00 0.00 63 1004.6
20260505114559 57 147 5.2 10.4 0.00 0.00 0.00 65 1004.6
20260505113058 55 215 5.2 9.6 0.00 0.00 0.00 69 1004.5
20260505111602 53 164 3.5 7.8 0.00 0.00 0.00 70 1004.3
20260505110111 53 144 4.3 7.8 0.00 0.00 0.00 68 1004.2
20260505101548 57 196 4.3 9.6 0.00 0.00 0.00 61 1004.1
20260505100046 57 176 5.2 13.0 0.00 0.00 0.00 59 1004.1
20260505094543 57 148 7.0 15.6 0.00 0.00 0.00 59 1004.1
20260505093042 57 146 7.0 15.6 0.00 0.00 0.00 58 1004.2
20260505091552 57 192 7.0 15.6 0.00 0.00 0.00 58 1004.3
20260505090040 57 192 7.8 15.6 0.00 0.00 0.00 58 1004.4
20260505084539 56 186 5.2 17.4 0.00 0.00 0.00 59 1004.3
20260505083049 56 131 7.0 12.2 0.00 0.00 0.00 59 1004.6
20260505081537 56 178 5.2 11.3 0.00 0.00 0.00 60 1004.7
20260505080038 55 207 6.1 11.3 0.00 0.00 0.00 61 1004.7
20260505074535 55 188 5.2 10.4 0.00 0.00 0.00 62 1004.7
20260505073032 55 165 4.3 8.7 0.00 0.00 0.00 61 1004.8
20260505071527 56 160 5.2 9.6 0.00 0.00 0.00 59 1004.8
20260505070024 56 148 6.1 13.0 0.00 0.00 0.00 59 1004.8
20260505064532 57 144 6.1 9.6 0.00 0.00 0.00 57 1004.9
20260505063022 57 144 4.3 11.3 0.00 0.00 0.00 57 1005.0
20260505061520 57 185 7.0 13.0 0.00 0.00 0.00 56 1005.1
20260505060020 57 174 4.3 13.0 0.00 0.00 0.00 56 1005.2
20260505054535 58 179 7.8 17.4 0.00 0.00 0.00 55 1005.3
20260505053015 58 165 7.8 17.4 0.00 0.00 0.00 55 1005.4
20260505051513 57 200 7.8 13.9 0.00 0.00 0.00 56 1005.3
20260505041507 57 217 6.1 13.0 0.00 0.00 0.00 55 1005.4
20260505040002 58 157 6.1 13.0 0.00 0.00 0.00 54 1005.3
20260505034502 58 234 4.3 12.2 0.00 0.00 0.00 54 1005.2
20260505033001 58 219 7.0 13.0 0.00 0.00 0.00 53 1005.0
20260505031606 58 198 7.8 13.9 0.00 0.00 0.00 52 1005.1
20260505030122 59 223 5.2 13.9 0.00 0.00 0.00 52 1005.0
20260505024612 59 195 5.2 11.3 0.00 0.00 0.00 51 1005.1
20260505023101 60 143 6.1 18.2 0.00 0.00 0.00 50 1004.9
20260505021559 60 174 8.7 15.6 0.00 0.00 0.00 49 1005.1
20260505020108 61 122 5.2 11.3 0.00 0.00 0.00 48 1005.1
20260505014558 61 186 8.7 17.4 0.00 0.00 0.00 45 1005.0
20260505013058 62 177 3.5 12.2 0.00 0.00 0.00 43 1004.9
20260505011601 63 229 4.3 13.0 0.00 0.00 0.00 41 1004.5
20260505010110 63 185 3.5 8.7 0.00 0.00 0.00 40 1004.4